DMSP 5D-2 F13 DEB, 40407

Orbit data source: Space-Track

DMSP 5D-2 F13 DEB, 40407 is space debris in SSO originally from a launch on Fri, 24 Mar 1995 UTC launched from the Air Force Western Test Range (AFWTR). Debris objects in space refer to the collection of defunct objects orbiting the Earth. Examples of debris include non-operational satellites, rocket bodies, and fragments generated from explosions, collisions, or faulty payload assembly.

Loading next visibility...
Identifier
40407, 1995-015U
Orbit
SSO
Country
Flag of USUS
Related business
Manufacturer
Unknown
Mission
Spacecraft
Bus & Motor
Unknown
Mass
Unknown
Launch date (UTC)
1995-03-24 (31 years ago)
Launch vehicle
Unknown
Launch site
Air Force Western Test Range (AFWTR)
Object type
Payload
Rocket body
Debris
Shape & HBR
Unknown shape, 0.1 m
Radar Cross Section
Small (<0.1 m²)

Expand to show TLE details & history
Last TLE update: 16 hours ago

TLE from 16 hours ago
0 DMSP 5D-2 F13 DEB
1 40407U 95015U   25340.53899988  .00000522  00000-0  27870-3 0  9994
2 40407  98.8079 351.9790 0006057 354.0654   6.0448 14.17530905557225
Epoch: 2025-12-06T12:56Z
TLE epoch observation values (Epoch: 2025-12-06T12:56:09.589Z)
Latitude
-0.00004°
Longitude
82.37376°
Altitude
832.278 km
Speed
7.439 km/s
True Right ascension
23h 27m 54s
True Declination
0° 00' 00"
Sunlit
Object was in daylight at epoch
Visualization orbit readout
Latitude
Unknown
Longitude
Unknown
Altitude
Unknown
Speed
Unknown
Apparent Right ascension
Unknown
Apparent Declination
Unknown
Sunlit
N/A
Visualization observer readout
Local Sidereal Time
02:59:30
Azimuth
Unknown
Elevation
Unknown
Doppler factor
Unknown
Orbital elements
Apogee altitude
835.248 km
Perigee altitude
826.515 km
Semi-major axis
7,209.019 km
Eccentricity
0.00061
Inclination
98.8079°
RAAN
351.979°
Arg. of periapsis
354.0654°
True anomaly
6.05211°
Mean anomaly
6.0448°
Eccentric anomaly
6.04846°
Mean motion
3.54592 °/min
Orbital period
101.53 mins
BSTAR
0.0002787

Documentation

Showing up to 5 results
|